This is the latest recevied weather packets stored in our database for station/object JF7BTK-10. If no packets are shown the sender has not sent any weather packets the latest 10 day(s).
| Time | Temp. | Humidity | Pressure | Rain* | Wind** | Luminosity | Snow |
|---|---|---|---|---|---|---|---|
| 1788570651 | 22.22° C | 69% | 1010.5 hPa | 0 mm | - | - | - |
| 1788570352 | 22.22° C | 68% | 1010.4 hPa | 0 mm | - | - | - |
| 1788570050 | 22.78° C | 63% | 1010.4 hPa | 0 mm | - | - | - |
| 1788569888 | 22.78° C | 63% | 1010.3 hPa | 0 mm | - | - | - |
| 1788569752 | 22.78° C | 63% | 1010.3 hPa | 0 mm | - | - | - |
| 1788569152 | 23.33° C | 60% | 1010.4 hPa | 0 mm | - | - | - |
| 1788568988 | 23.89° C | 61% | 1010.4 hPa | 0 mm | - | - | - |
| 1788568855 | 23.33° C | 61% | 1010.4 hPa | 0 mm | - | - | - |
| 1788568551 | 23.33° C | 62% | 1010.4 hPa | 0 mm | - | - | - |
| 1788568251 | 23.33° C | 63% | 1010.2 hPa | 0 mm | - | - | - |
| 1788568087 | 23.33° C | 64% | 1010.2 hPa | 0 mm | - | - | - |
| 1788567351 | 22.78° C | 64% | 1010.2 hPa | 0 mm | - | - | - |
| 1788567187 | 23.33° C | 64% | 1010.1 hPa | 0 mm | - | - | - |
| 1788566288 | 23.89° C | 70% | 1009.9 hPa | 0 mm | - | - | - |
| 1788565852 | 23.33° C | 70% | 1009.9 hPa | 0 mm | - | - | - |
| 1788565389 | 23.33° C | 71% | 1009.8 hPa | 0 mm | - | - | - |
| 1788564488 | 22.22° C | 80% | 1009.8 hPa | 0 mm | - | - | - |
| 1788564352 | 21.67° C | 80% | 1010 hPa | 0 mm | - | - | - |
| 1788563587 | 21.11° C | 80% | 1009.8 hPa | 0 mm | - | - | - |
| 1788563452 | 21.11° C | 80% | 1009.9 hPa | 0 mm | - | - | - |
| 1788562850 | 21.67° C | 77% | 1009.7 hPa | 0 mm | - | - | - |
| 1788562688 | 21.67° C | 77% | 1009.5 hPa | 0 mm | - | - | - |
| 1788562551 | 21.67° C | 77% | 1009.6 hPa | 0 mm | - | - | - |
| 1788562250 | 21.67° C | 78% | 1009.5 hPa | 0 mm | - | - | - |
| 1788561788 | 22.22° C | 80% | 1009.7 hPa | 0 mm | - | - | - |
* Rain latest hour (hover to see other rain measurements)
** Current wind speed in m/s (hover to see current wind gust speed)